User: anonymous   Login
Location: Unspecified
(0.0000°N, 0.0000°E)
Time: 07:12:33
(UTC+00:00)
Language:

CICERO 7 - Orbit

View from above orbital plane
View from above orbital plane
View from above satellite
View from above satellite

Ground track
Ground track

The orbit data is extracted from the following two-line orbital elements,

1 43143U 18004AJ  20223.83365717 +.00001446 +00000-0 +60018-4 0  9991
2 43143 097.4437 295.7543 0006254 218.7516 141.3274 15.25466695143406
Epoch (UTC): 10 August 2020 20:00:27
Eccentricity: 0.0006254
inclination: 97.4437°
perigee height: 485 km
apogee height: 493 km
right ascension of ascending node: 295.7543°
argument of perigee: 218.7516°
revolutions per day: 15.25466695
mean anomaly at epoch: 141.3274°
orbit number at epoch: 14340

The dashed part of the orbit path shows where the satellite is in the earth's shadow,  

DLR